Regional Weather Roundup
Issued by NWS Charleston, WV

Home | Current Version | Previous Version | Graphics & Text | Print | Product List | Glossary On
Versions: 1 2 3 4 5 6 7 8 9 10 11 12 13 14 15 16 17 18 19 20 21 22 23 24 25 26 27
000
ASUS41 KRLX 191710
RWRRLX
West Virginia Regional Weather Roundup
National Weather Service Charleston WV
100 PM EDT SAT APR 19 2014

Note: "fair" indicates few or no clouds below 12,000 feet with no
significant weather and/or obstructions to visibility.

WVZ003-191800-
Northern Panhandle of West Virginia

CITY           SKY/WX    TMP DP  RH WIND       PRES   REMARKS
WHEELING       SUNNY     57  34  41 NE5       30.31F
$$

WVZ009-191800-
Northwest West Virginia

CITY           SKY/WX    TMP DP  RH WIND       PRES   REMARKS
PARKERSBURG    MOSUNNY   66  36  32 NE9       30.31F
$$

WVZ006-191800-
Western West Virginia

CITY           SKY/WX    TMP DP  RH WIND       PRES   REMARKS
HUNTINGTON     SUNNY     68  39  34 E15       30.24F
$$

WVZ015-191800-
West Central West Virginia

CITY           SKY/WX    TMP DP  RH WIND       PRES   REMARKS
CHARLESTON     CLOUDY    67  35  30 NE14      30.23F
$$

WVZ031-191800-
North Central West Virginia

CITY           SKY/WX    TMP DP  RH WIND       PRES   REMARKS
CLARKSBURG     CLOUDY    63  36  36 N15       30.28F
MORGANTOWN     PTSUNNY   61  36  39 NE9G21    30.31F
$$

WVZ035-042-045-191800-
South Central West Virginia

CITY           SKY/WX    TMP DP  RH WIND       PRES   REMARKS
BECKLEY        CLOUDY    64  34  32 N12       30.22F
BLUEFIELD      PTSUNNY   64  32  30 NE12      30.23F
LEWISBURG      CLOUDY    62  32  32 NE3       30.21S
$$

WVZ047-191800-
Northern Mountains of West Virginia

CITY           SKY/WX    TMP DP  RH WIND       PRES   REMARKS
ELKINS         CLOUDY    65  34  31 NW14G20   30.25F
$$

WVZ052-191800-
Eastern Panhandle of West Virginia

CITY           SKY/WX    TMP DP  RH WIND       PRES   REMARKS
MARTINSBURG    MOSUNNY   65  34  31 NE9G18    30.28F
PETERSBURG     CLOUDY    66  43  44 N6        30.29S
$$



USA.gov is the U.S. government's official web portal to all federal, state and local government web resources and services.